Location: *
(2.5500°S, 65.9667°W)
Time: 15:54:49
(UTC+00:00)

A-11 Canister half - Pass Details

Date: 12 April 2024
Orbit: 1525 x 1683 km, 47.3° (Epoch: 21 May)

Event Time Altitude Azimuth Distance (km) Brightness Sun altitude
Exits shadow 07:07:00 16° 149° (SSE) 3,334 10.8 -49.1°
Maximum altitude 07:08:55 17° 135° (SE) 3,281 10.9 -48.7°
Drops below altitude 10° 07:14:46 10° 98° (E) 3,859 11.6 -47.2°
Sets 07:19:29 0° 79° (E) 4,872 12.4 -46.1°
